Aéroclub Cannes UACA

Aéroclub Cannes UACA
UACA
Approuvé A.T.O. EASA – N°FR.ATO.0108

UACA, UNION des aéroclubs
Cannes “Ailes d’Azur”, Nice “Côte d’Azur”, Grasse “St Exupery”, ACCA “Francis Séverac”

Au décollage : pare-brise parfaitement propre, pour votre sécurité, et celle des autres

Pré-vol : examen des pneus afin d'y détecter d'éventuelles traces de freinage excessif

Avant de quitter l'avion, vérifiez que vous n'emportez pas la checklist

Après chaque vol, merci de mettre en place le pare-soleil !

Pensez à remettre en place le cache-pitot à la fin de chaque vol !

Rangement de l'avion au hangar : manoeuvrez prudemment afin d'éviter tout impact


Météo à Cannes:
METAR
LFMD 280730Z AUTO 01004KT 320V060 9999 FEW038 SCT049 OVC120 05/02 Q1015 NOSIG =
LFMD 280400Z 2804/2903 01005KT 9999 BKN050 BECMG 2810/2812 NSC TEMPO 2812/2818 20010KT

TAF
LFMD 280400Z 2804/2903 01005KT 9999 BKN050 BECMG 2810/2812 NSC TEMPO 2812/2818 20010KT =

SR / SS: 06:56 / 16:34 UTC (LFMD 2023-01-28)